一网星座-0636星 (ONEWEB-0636)

导读 | 豆包AI

ONEWEB-0636是英国OneWeb公司低轨卫星互联网星座的成员,于2023年3月26日发射。OneWeb在英国政府支持下,计划完成600余颗低轨卫星组网,为全球提供高速低延迟的互联网接入服务,即使地面基础设施受损也能保障通信,后续第二代卫星还将新增导航定位功能,进一步拓展服务能力。

Basic Information
目录编号:
56077
目录名称:
ONEWEB-0636
国际标识:
2023-043AH
轨道中心:
EARTH
卫星名称:
一网星座-0636星
卫星全名:
一网星座-0636星 (ONEWEB-0636)
卫星状态:
在轨 (已飞行1084 天)
发射日期:
2023-03-26 UTC
国别 :
英国 (GB)
星等 :
--
Orbit Information
数据来源 国际轨道数据 AOE轨道数据
星历时间 2026-03-14T04:04:24+0800
13小时前
查看轨道信息
2026-03-11T10:00:00+0800
3天前
查看轨道信息
半长轴 7579.913km 7579.922km
偏心率 0.0001391 0.0001179
轨道倾角 87.894° 87.894°
近地点辐角 92.128° 82.150°
升交点赤经 278.237° 278.787°
平近点角 268.001° 207.007°
近地点 1200.721km 1200.891km
远地点 1202.831km 1202.679km
周期 109.460分钟 109.460分钟
每日圈数 13.155474 13.155449
Detailed Information
平衡模式:
三轴稳定
覆盖范围:
全球
运营商:
一网卫星公司
运营商所在国:
英国
制造商(研发单位):
一网卫星公司
制造商所在国:
英国
使用方式:
暂无
Satellite Introduction
OneWeb卫星网络由648颗重约125公斤的微型卫星组成,运行在1200公里的轨道上。 每颗卫星都能够提供至少每秒8千兆位的吞吐量,以使用其高吞吐量的Ku频段有效载荷为家庭和移动平台提供互联网接入。该卫星仍在工作。
2D Orbit Map
3D Orbit Map
Orbit Altitude Analysis Chart
Orbit Inclination Analysis Chart
Orbit Comprehensive Analysis Chart
View Comprehensive Chart